XW7RMR Weather Reports


time (UTC)temp
C
wind
direction
speed
KPH
gust
KPH
rain 1hr
cm
rain 24hr
cm
rain mn
cm
humidity
%
barometer
mb
20260505101328 9 73 0.0 0.0 0.00 0.00 0.00 95 1013.2
20260505100824 9 60 0.0 0.0 0.00 0.00 0.00 95 1013.2
20260505100321 9 51 0.0 0.0 0.00 0.00 0.00 95 1013.2
20260505095816 10 53 0.0 0.0 0.00 0.00 0.00 95 1013.2
20260505095314 10 58 0.0 0.0 0.00 0.00 0.00 95 1013.5
20260505094810 10 43 0.0 1.6 0.00 0.00 0.00 95 1013.3
20260505094307 10 67 0.0 0.0 0.00 0.00 0.00 95 1013.3
20260505093802 10 59 0.0 0.0 0.00 0.00 0.00 94 1013.2
20260505093301 10 58 0.0 0.0 0.00 0.00 0.00 94 1013.3
20260505092757 10 70 0.0 0.0 0.00 0.00 0.00 94 1013.2
20260505092256 10 70 0.0 0.0 0.00 0.00 0.00 94 1013.2
20260505091752 10 71 0.0 0.0 0.00 0.00 0.00 93 1013.2
20260505091250 10 72 0.0 0.0 0.00 0.00 0.00 94 1013.2
20260505090748 10 69 0.0 0.0 0.00 0.00 0.00 93 1012.9
20260505090246 10 70 0.0 0.0 0.00 0.00 0.00 93 1013.0
20260505085743 10 108 0.0 0.0 0.00 0.00 0.00 93 1012.9
20260505085241 10 98 0.0 0.0 0.00 0.00 0.00 93 1013.0
20260505084738 10 83 0.0 0.0 0.00 0.00 0.00 93 1013.2
20260505084238 10 82 0.0 0.0 0.00 0.00 0.00 93 1013.0
20260505083734 10 66 0.0 0.0 0.00 0.00 0.00 92 1012.9
20260505083230 10 71 0.0 0.0 0.00 0.00 0.00 92 1013.0
20260505082726 10 75 0.0 0.0 0.00 0.00 0.00 92 1013.1
20260505082224 11 65 0.0 0.0 0.00 0.00 0.00 91 1013.1
20260505081719 11 48 0.0 0.0 0.00 0.00 0.00 91 1012.9
20260505081217 11 64 0.0 0.0 0.00 0.00 0.00 91 1012.7
20260505080714 11 81 0.0 0.0 0.00 0.00 0.00 91 1012.9
20260505080210 11 85 0.0 0.0 0.00 0.00 0.00 90 1012.8
20260505075706 11 53 0.0 0.0 0.00 0.00 0.00 90 1012.7
20260505075203 11 74 1.6 3.2 0.00 0.00 0.00 90 1012.7
20260505074700 11 68 0.0 0.0 0.00 0.00 0.00 89 1012.8
20260505074157 11 351 3.2 3.2 0.00 0.00 0.00 89 1012.6
20260505073655 11 68 1.6 1.6 0.00 0.00 0.00 89 1012.5
20260505073153 11 89 0.0 0.0 0.00 0.00 0.00 88 1012.6
20260505072648 11 167 6.4 6.4 0.00 0.00 0.00 89 1012.6
20260505072145 11 134 0.0 0.0 0.00 0.00 0.00 88 1012.3
20260505071640 11 270 0.0 1.6 0.00 0.00 0.00 88 1012.3
20260505071138 11 180 4.8 4.8 0.00 0.00 0.00 88 1012.3
20260505070635 11 170 1.6 1.6 0.00 0.00 0.00 87 1012.3
20260505070131 11 146 3.2 4.8 0.00 0.00 0.00 88 1012.3
20260505065627 11 164 3.2 3.2 0.00 0.00 0.00 88 1012.2
20260505065124 11 154 1.6 1.6 0.00 0.00 0.00 88 1012.0
20260505064621 11 296 1.6 1.6 0.00 0.00 0.00 88 1012.0
20260505064120 11 129 1.6 3.2 0.00 0.00 0.00 87 1012.0
20260505063617 12 184 3.2 4.8 0.00 0.00 0.00 87 1012.1
20260505063112 12 173 3.2 4.8 0.00 0.00 0.00 87 1011.8
20260505062609 12 200 0.0 1.6 0.00 0.00 0.00 86 1011.9
20260505062106 12 210 1.6 3.2 0.00 0.00 0.00 86 1011.8
20260505061603 12 198 1.6 3.2 0.00 0.00 0.00 86 1011.7
20260505061101 12 191 6.4 11.3 0.00 0.00 0.00 86 1011.8
20260505060559 12 144 1.6 3.2 0.00 0.00 0.00 86 1011.8
20260505060055 12 273 1.6 3.2 0.00 0.00 0.00 85 1011.7
20260505055550 12 127 1.6 4.8 0.00 0.00 0.00 85 1011.6
20260505055048 12 98 0.0 1.6 0.00 0.00 0.00 85 1011.7
20260505054545 12 204 4.8 6.4 0.00 0.00 0.00 84 1011.6
20260505054043 12 143 3.2 6.4 0.00 0.00 0.00 84 1011.6
20260505053539 12 198 4.8 6.4 0.00 0.00 0.00 84 1011.5
20260505053036 12 212 3.2 4.8 0.00 0.00 0.00 84 1011.4
20260505052533 13 172 4.8 6.4 0.00 0.00 0.00 83 1011.5
20260505052031 13 118 3.2 3.2 0.00 0.00 0.00 83 1011.2
20260505051527 13 184 4.8 6.4 0.00 0.00 0.00 83 1011.5
20260505051026 13 160 3.2 4.8 0.00 0.00 0.00 82 1011.3
20260505050524 13 158 4.8 4.8 0.00 0.00 0.00 82 1011.5
20260505041451 15 103 1.6 3.2 0.00 0.00 0.00 78 1010.6
20260505040948 15 139 3.2 4.8 0.00 0.00 0.00 78 1010.5
20260505040446 15 192 3.2 3.2 0.00 0.00 0.00 77 1010.4
20260505035942 15 128 1.6 3.2 0.00 0.00 0.00 77 1010.1
20260505035438 15 164 1.6 3.2 0.00 0.00 0.00 76 1010.1
20260505034936 15 116 1.6 3.2 0.00 0.00 0.00 75 1010.2
20260505034432 15 185 6.4 6.4 0.00 0.00 0.00 75 1010.2
20260505033929 16 85 3.2 4.8 0.00 0.00 0.00 74 1010.0
20260505033426 16 200 1.6 1.6 0.00 0.00 0.00 74 1010.1
20260505032924 16 216 3.2 3.2 0.00 0.00 0.00 73 1009.9
20260505032421 16 168 6.4 9.7 0.00 0.00 0.00 72 1009.9
20260505031918 16 169 1.6 3.2 0.00 0.00 0.00 71 1009.9
20260505031414 17 199 3.2 4.8 0.00 0.00 0.00 71 1009.8
20260505030912 17 222 1.6 1.6 0.00 0.00 0.00 70 1009.8
20260505030407 17 194 1.6 3.2 0.00 0.00 0.00 69 1009.4
20260505025903 18 277 6.4 6.4 0.00 0.00 0.00 68 1009.5
20260505025401 18 168 3.2 4.8 0.00 0.00 0.00 68 1009.6
20260505024859 18 256 4.8 6.4 0.00 0.00 0.00 67 1009.4
20260505024356 19 39 4.8 11.3 0.00 0.00 0.00 66 1009.3
20260505023853 19 174 1.6 1.6 0.00 0.00 0.00 65 1009.3
20260505023350 20 77 4.8 6.4 0.00 0.00 0.00 63 1009.2
20260505022848 20 38 0.0 1.6 0.00 0.00 0.00 63 1009.2
20260505022344 21 257 1.6 3.2 0.00 0.00 0.00 62 1009.3
20260505021842 21 245 3.2 4.8 0.00 0.00 0.00 61 1009.1
20260505021338 21 244 1.6 1.6 0.00 0.00 0.00 60 1009.1
20260505020834 21 200 4.8 6.4 0.00 0.00 0.00 61 1009.1
20260505020330 22 206 6.4 9.7 0.00 0.00 0.00 59 1009.0
20260505015827 22 240 4.8 4.8 0.00 0.00 0.00 58 1009.0
20260505015324 22 204 3.2 4.8 0.00 0.00 0.00 58 1009.1
20260505014821 23 90 3.2 3.2 0.00 0.00 0.00 58 1009.2
20260505014318 22 148 1.6 1.6 0.00 0.00 0.00 58 1009.1
20260505013815 22 229 4.8 9.7 0.00 0.00 0.00 57 1009.2
20260505013312 22 276 3.2 3.2 0.00 0.00 0.00 59 1009.1
20260505012810 22 222 1.6 1.6 0.00 0.00 0.00 59 1009.1
20260505012308 23 250 3.2 4.8 0.00 0.00 0.00 58 1009.2
20260505011803 23 239 6.4 9.7 0.00 0.00 0.00 56 1009.2
20260505011301 23 240 6.4 9.7 0.00 0.00 0.00 57 1009.2
20260505010756 23 233 11.3 12.9 0.00 0.00 0.00 57 1009.3
20260505010252 23 182 6.4 9.7 0.00 0.00 0.00 58 1009.1
20260505005749 23 239 1.6 1.6 0.00 0.00 0.00 58 1009.3
20260505005246 23 214 3.2 4.8 0.00 0.00 0.00 58 1009.2
20260505004743 23 218 1.6 1.6 0.00 0.00 0.00 58 1009.3
20260505004239 25 226 3.2 3.2 0.00 0.00 0.00 55 1009.4
20260505003736 24 148 1.6 1.6 0.00 0.00 0.00 55 1009.4
20260505003234 24 248 8.0 9.7 0.00 0.00 0.00 56 1009.5
20260505002730 24 45 1.6 3.2 0.00 0.00 0.00 56 1009.4
20260505002228 23 149 1.6 3.2 0.00 0.00 0.00 56 1009.4
20260505001725 24 182 3.2 4.8 0.00 0.00 0.00 56 1009.4
20260505001223 24 126 1.6 1.6 0.00 0.00 0.00 57 1009.4
20260505000719 23 272 4.8 6.4 0.00 0.00 0.00 59 1009.3
20260505000218 23 175 4.8 6.4 0.00 0.00 0.00 57 1009.6
20260504235714 23 299 3.2 4.8 0.00 0.00 0.00 58 1009.6
20260504235210 23 162 4.8 9.7 0.00 0.00 0.00 58 1009.6
20260504234707 23 200 1.6 1.6 0.00 0.00 0.00 58 1009.6
20260504234204 22 333 1.6 1.6 0.00 0.00 0.00 60 1009.7
20260504233700 23 116 3.2 4.8 0.00 0.00 0.00 60 1009.9
20260504233156 23 104 4.8 9.7 0.00 0.00 0.00 58 1009.9
20260504232654 25 343 1.6 3.2 0.00 0.00 0.00 55 1009.9
20260504232151 23 211 1.6 3.2 0.00 0.00 0.00 58 1009.9
20260504231647 23 191 6.4 9.7 0.00 0.00 0.00 58 1010.0
20260504231144 23 207 9.7 12.9 0.00 0.00 0.00 57 1009.9
20260504230640 23 141 4.8 4.8 0.00 0.00 0.00 57 1010.0
20260504230139 23 262 3.2 3.2 0.00 0.00 0.00 56 1010.3
20260504225637 22 108 1.6 3.2 0.00 0.00 0.00 60 1010.2
20260504225132 22 194 4.8 6.4 0.00 0.00 0.00 60 1010.1
20260504224630 22 134 3.2 4.8 0.00 0.00 0.00 60 1010.3
20260504224126 23 271 0.0 1.6 0.00 0.00 0.00 58 1010.3
20260504223623 22 110 1.6 1.6 0.00 0.00 0.00 60 1010.3
20260504223119 22 146 3.2 4.8 0.00 0.00 0.00 61 1010.4
20260504222616 22 160 4.8 4.8 0.00 0.00 0.00 60 1010.5
20260504222114 22 159 6.4 6.4 0.00 0.00 0.00 59 1010.6
20260504221611 22 209 3.2 4.8 0.00 0.00 0.00 61 1010.6
20260504221108 21 221 4.8 6.4 0.00 0.00 0.00 61 1010.6
20260504220604 22 123 4.8 4.8 0.00 0.00 0.00 60 1010.5
20260504215557 21 175 6.4 6.4 0.00 0.00 0.00 60 1010.7
20260504215055 21 219 6.4 9.7 0.00 0.00 0.00 61 1010.8
20260504214551 21 199 6.4 9.7 0.00 0.00 0.00 63 1011.0
20260504214047 20 83 3.2 3.2 0.00 0.00 0.00 65 1010.9
20260504213544 22 58 1.6 3.2 0.00 0.00 0.00 60 1011.0
20260504213041 21 256 3.2 4.8 0.00 0.00 0.00 63 1010.9
20260504212537 20 167 6.4 9.7 0.00 0.00 0.00 64 1011.1
20260504212034 20 145 6.4 6.4 0.00 0.00 0.00 64 1011.1
20260504211531 20 186 0.0 1.6 0.00 0.00 0.00 64 1011.2
20260504211028 21 201 6.4 6.4 0.00 0.00 0.00 60 1011.4
20260504210525 20 70 1.6 1.6 0.00 0.00 0.00 62 1011.3
20260504210022 20 175 4.8 4.8 0.00 0.00 0.00 64 1011.6
20260504205520 20 81 6.4 9.7 0.00 0.00 0.00 65 1011.6
20260504205018 20 23 3.2 4.8 0.00 0.00 0.00 66 1011.6
20260504204515 20 195 4.8 4.8 0.00 0.00 0.00 64 1011.6
20260504204014 20 83 3.2 4.8 0.00 0.00 0.00 64 1011.7
20260504203512 20 185 1.6 3.2 0.00 0.00 0.00 63 1011.7
20260504203009 20 124 4.8 6.4 0.00 0.00 0.00 63 1011.9
20260504202504 20 259 4.8 9.7 0.00 0.00 0.00 63 1011.8
20260504202001 20 166 4.8 4.8 0.00 0.00 0.00 64 1012.0
20260504201458 20 274 3.2 4.8 0.00 0.00 0.00 65 1012.1
20260504200956 18 68 4.8 6.4 0.00 0.00 0.00 68 1012.0
20260504200452 18 152 4.8 6.4 0.00 0.00 0.00 68 1012.2
20260504195949 18 62 4.8 6.4 0.00 0.00 0.00 69 1012.2
20260504195445 18 185 6.4 11.3 0.00 0.00 0.00 67 1012.1
20260504194942 17 196 3.2 4.8 0.00 0.00 0.00 70 1012.1
20260504194438 18 118 8.0 9.7 0.00 0.00 0.00 69 1012.0
20260504193934 18 160 4.8 6.4 0.00 0.00 0.00 64 1012.1
20260504193431 18 201 3.2 4.8 0.00 0.00 0.00 67 1012.2
20260504192930 17 284 3.2 4.8 0.00 0.00 0.00 71 1012.3
20260504192427 17 130 6.4 11.3 0.00 0.00 0.00 72 1012.2
20260504191926 17 78 1.6 1.6 0.00 0.00 0.00 70 1012.5
20260504191423 16 203 6.4 6.4 0.00 0.00 0.00 71 1012.5
20260504190918 17 257 1.6 3.2 0.00 0.00 0.00 68 1012.7
20260504190414 16 87 1.6 3.2 0.00 0.00 0.00 72 1012.7
20260504185911 16 182 1.6 3.2 0.00 0.00 0.00 72 1012.6
20260504185408 16 188 3.2 3.2 0.00 0.00 0.00 74 1012.7
20260504184904 16 214 1.6 1.6 0.00 0.00 0.00 73 1012.6
20260504184400 16 167 3.2 4.8 0.00 0.00 0.00 74 1012.8
20260504183856 16 57 0.0 0.0 0.00 0.00 0.00 74 1012.5
20260504183354 16 199 4.8 11.3 0.00 0.00 0.00 75 1012.8
20260504182851 15 263 3.2 6.4 0.00 0.00 0.00 76 1012.8
20260504182348 15 288 1.6 3.2 0.00 0.00 0.00 75 1012.8
20260504181845 15 278 3.2 4.8 0.00 0.00 0.00 77 1012.9
20260504181343 15 302 0.0 1.6 0.00 0.00 0.00 78 1012.8
20260504180841 15 243 1.6 3.2 0.00 0.00 0.00 79 1012.7
20260504180339 15 269 4.8 4.8 0.00 0.00 0.00 77 1012.8
20260504175837 15 182 1.6 3.2 0.00 0.00 0.00 79 1012.7
20260504175333 14 112 1.6 3.2 0.00 0.00 0.00 79 1012.7
20260504174832 15 181 3.2 6.4 0.00 0.00 0.00 77 1012.7
20260504174329 15 190 4.8 6.4 0.00 0.00 0.00 78 1012.8
20260504173826 14 104 1.6 3.2 0.00 0.00 0.00 79 1012.6
20260504173323 15 202 1.6 1.6 0.00 0.00 0.00 78 1012.5
20260504172820 15 265 3.2 4.8 0.00 0.00 0.00 79 1012.7
20260504172316 14 170 1.6 4.8 0.00 0.00 0.00 80 1012.7
20260504171812 14 271 8.0 11.3 0.00 0.00 0.00 79 1012.5
20260504171310 13 282 1.6 3.2 0.00 0.00 0.00 81 1012.6
20260504170807 14 178 4.8 4.8 0.00 0.00 0.00 81 1012.6
20260504170303 13 111 1.6 1.6 0.00 0.00 0.00 82 1012.6
20260504160222 13 127 1.6 3.2 0.00 0.00 0.00 85 1012.3
20260504151150 12 151 1.6 4.8 0.00 0.00 0.00 88 1012.3
20260504150647 12 121 0.0 1.6 0.00 0.00 0.00 88 1012.0
20260504150144 12 172 6.4 6.4 0.00 0.00 0.00 88 1012.1
20260504141113 12 138 1.6 1.6 0.00 0.00 0.00 90 1011.6
20260504140609 12 121 0.0 1.6 0.00 0.00 0.00 90 1011.5
20260504140105 12 65 0.0 0.0 0.00 0.00 0.00 90 1011.4
20260504130533 11 74 0.0 0.0 0.00 0.00 0.00 92 1010.6
20260504110421 12 89 0.0 0.0 0.00 0.00 0.00 88 1009.4